Location: Fort Worth, Tx
(32.7431°N, 97.3695°W)
Time: 09:34:55
(UTC-04:00)

Explorer 11/Cluster Stage 4 - Pass Details

Date: 29 February 2024
Orbit: 465 x 1219 km, 28.8° (Epoch: 24 April)

Event Time Altitude Azimuth Distance (km) Brightness Sun altitude
Exits shadow 05:33:59 32° 171° (S) 1,717 8.2 -30.9°
Drops below altitude 10° 05:38:07 10° 138° (SE) 2,683 9.6 -30.1°
Sets 05:40:44 0° 130° (SE) 3,508 10.4 -29.5°
